Stündliche Wetter Kyzylata

Heute, 10 Mai, Montag

Zeit Temperatur Niederschläge Wind Luftdruck Luftfeuchtigkeit
00:00 +14°C° 0 mm 2 m/S 676 mmHg 83%
01:00 +14°C° 0 mm 2 m/S 676 mmHg 81%
02:00 +14°C° 0 mm 2 m/S 676 mmHg 78%
03:00 +14°C° 0 mm 2 m/S 675 mmHg 77%
04:00 +14°C° 0 mm 2 m/S 675 mmHg 75%
05:00 +13°C° 0 mm 2 m/S 675 mmHg 73%
06:00 +15°C° 0 mm 2 m/S 675 mmHg 70%
07:00 +17°C° 0 mm 2 m/S 676 mmHg 67%
08:00 +19°C° 0 mm 1 m/S 676 mmHg 64%
09:00 +19°C° 0.1 mm 2 m/S 676 mmHg 62%
10:00 +20°C° 0.1 mm 2 m/S 676 mmHg 61%
11:00 +21°C° 0 mm 2 m/S 676 mmHg 61%
12:00 +21°C° 0.5 mm 2 m/S 676 mmHg 62%
13:00 +21°C° 0.5 mm 2 m/S 676 mmHg 64%
14:00 +21°C° 0.5 mm 2 m/S 676 mmHg 65%
15:00 +21°C° 0.6 mm 2 m/S 676 mmHg 68%
16:00 +21°C° 0.6 mm 1 m/S 676 mmHg 70%
17:00 +21°C° 0.6 mm 1 m/S 676 mmHg 73%
18:00 +20°C° 0.2 mm 1 m/S 675 mmHg 75%
19:00 +19°C° 0.2 mm 1 m/S 675 mmHg 76%
20:00 +18°C° 0.2 mm 1 m/S 675 mmHg 78%
21:00 +16°C° 0 mm 1 m/S 675 mmHg 78%
22:00 +16°C° 0 mm 1 m/S 675 mmHg 78%
23:00 +15°C° 0 mm 0 m/S 675 mmHg 78%

Morgen, 11 Mai, Dienstag

Zeit Temperatur Niederschläge Wind Luftdruck Luftfeuchtigkeit
00:00 +15°C° 0 mm 1 m/S 675 mmHg 80%
01:00 +15°C° 0 mm 1 m/S 675 mmHg 81%
02:00 +15°C° 0 mm 1 m/S 675 mmHg 82%
03:00 +14°C° 0 mm 1 m/S 675 mmHg 82%
04:00 +14°C° 0 mm 1 m/S 675 mmHg 82%
05:00 +13°C° 0 mm 1 m/S 675 mmHg 83%
06:00 +15°C° 0 mm 1 m/S 676 mmHg 78%
07:00 +16°C° 0 mm 1 m/S 677 mmHg 73%
08:00 +19°C° 0 mm 1 m/S 677 mmHg 67%
09:00 +19°C° 0 mm 2 m/S 678 mmHg 60%
10:00 +19°C° 0 mm 3 m/S 678 mmHg 54%
11:00 +20°C° 0 mm 3 m/S 678 mmHg 47%
12:00 +21°C° 0 mm 3 m/S 679 mmHg 45%
13:00 +21°C° 0 mm 3 m/S 679 mmHg 44%
14:00 +21°C° 0 mm 3 m/S 679 mmHg 43%
15:00 +21°C° 0 mm 3 m/S 679 mmHg 44%
16:00 +21°C° 0 mm 2 m/S 679 mmHg 45%
17:00 +20°C° 0 mm 2 m/S 679 mmHg 46%
18:00 +18°C° 0 mm 2 m/S 678 mmHg 50%
19:00 +16°C° 0 mm 2 m/S 678 mmHg 55%
20:00 +15°C° 0 mm 2 m/S 678 mmHg 59%
21:00 +14°C° 0 mm 2 m/S 678 mmHg 57%
22:00 +14°C° 0 mm 2 m/S 677 mmHg 55%
23:00 +13°C° 0 mm 2 m/S 677 mmHg 54%

übermorgen, 12 Mai, Mittwoch

Zeit Temperatur Niederschläge Wind Luftdruck Luftfeuchtigkeit
00:00 +13°C° 0 mm 2 m/S 677 mmHg 53%
01:00 +13°C° 0 mm 2 m/S 677 mmHg 52%
02:00 +13°C° 0 mm 2 m/S 676 mmHg 51%
03:00 +12°C° 0 mm 2 m/S 676 mmHg 51%
04:00 +12°C° 0 mm 2 m/S 676 mmHg 51%
05:00 +12°C° 0 mm 2 m/S 676 mmHg 51%
06:00 +14°C° 0 mm 2 m/S 676 mmHg 50%
07:00 +16°C° 0 mm 1 m/S 677 mmHg 49%
08:00 +19°C° 0 mm 1 m/S 677 mmHg 48%
09:00 +20°C° 0 mm 1 m/S 677 mmHg 47%
10:00 +20°C° 0 mm 2 m/S 677 mmHg 45%
11:00 +21°C° 0 mm 2 m/S 678 mmHg 44%
12:00 +21°C° 0 mm 3 m/S 678 mmHg 45%
13:00 +22°C° 0 mm 3 m/S 678 mmHg 45%
14:00 +22°C° 0 mm 4 m/S 678 mmHg 45%
15:00 +22°C° 0 mm 4 m/S 677 mmHg 48%
16:00 +21°C° 0 mm 5 m/S 677 mmHg 51%
17:00 +21°C° 0 mm 5 m/S 677 mmHg 54%
18:00 +19°C° 0 mm 5 m/S 676 mmHg 57%
19:00 +17°C° 0 mm 4 m/S 676 mmHg 61%
20:00 +14°C° 0 mm 4 m/S 675 mmHg 64%
21:00 +14°C° 0 mm 3 m/S 675 mmHg 64%
22:00 +13°C° 0 mm 3 m/S 675 mmHg 64%
23:00 +13°C° 0 mm 3 m/S 675 mmHg 64%

13 Mai, Donnerstag

Zeit Temperatur Niederschläge Wind Luftdruck Luftfeuchtigkeit
00:00 +13°C° 0 mm 3 m/S 675 mmHg 63%
01:00 +13°C° 0 mm 3 m/S 675 mmHg 62%
02:00 +12°C° 0 mm 3 m/S 675 mmHg 60%
03:00 +13°C° 0 mm 2 m/S 675 mmHg 60%
04:00 +13°C° 0 mm 2 m/S 675 mmHg 59%
05:00 +13°C° 0 mm 2 m/S 675 mmHg 59%
06:00 +14°C° 0 mm 2 m/S 675 mmHg 57%
07:00 +16°C° 0 mm 2 m/S 676 mmHg 56%
08:00 +19°C° 0 mm 1 m/S 676 mmHg 55%
09:00 +19°C° 0 mm 2 m/S 676 mmHg 54%
10:00 +20°C° 0 mm 2 m/S 677 mmHg 53%
11:00 +21°C° 0 mm 2 m/S 677 mmHg 52%
12:00 +21°C° 0 mm 3 m/S 677 mmHg 51%
13:00 +21°C° 0 mm 3 m/S 677 mmHg 51%
14:00 +22°C° 0 mm 3 m/S 677 mmHg 50%
15:00 +22°C° 0 mm 3 m/S 676 mmHg 51%
16:00 +21°C° 0 mm 3 m/S 676 mmHg 52%
17:00 +21°C° 0 mm 3 m/S 676 mmHg 53%
18:00 +19°C° 0 mm 3 m/S 676 mmHg 58%
19:00 +17°C° 0 mm 2 m/S 675 mmHg 62%
20:00 +15°C° 0 mm 2 m/S 675 mmHg 67%
21:00 +15°C° 0 mm 2 m/S 675 mmHg 68%
22:00 +14°C° 0 mm 2 m/S 675 mmHg 70%
23:00 +13°C° 0 mm 3 m/S 675 mmHg 71%

14 Mai, Freitag

Zeit Temperatur Niederschläge Wind Luftdruck Luftfeuchtigkeit
00:00 +13°C° 0 mm 3 m/S 674 mmHg 70%
01:00 +13°C° 0 mm 3 m/S 674 mmHg 69%
02:00 +13°C° 0 mm 3 m/S 674 mmHg 68%
03:00 +13°C° 0 mm 3 m/S 674 mmHg 66%
04:00 +12°C° 0 mm 3 m/S 674 mmHg 63%
05:00 +13°C° 0 mm 2 m/S 674 mmHg 61%
06:00 +15°C° 0 mm 2 m/S 675 mmHg 58%
07:00 +17°C° 0 mm 2 m/S 675 mmHg 55%
08:00 +20°C° 0 mm 1 m/S 676 mmHg 52%
09:00 +20°C° 0 mm 2 m/S 676 mmHg 51%
10:00 +21°C° 0 mm 2 m/S 676 mmHg 49%
11:00 +22°C° 0 mm 3 m/S 676 mmHg 48%
12:00 +22°C° 0 mm 3 m/S 676 mmHg 48%
13:00 +22°C° 0 mm 3 m/S 676 mmHg 47%
14:00 +24°C° 0 mm 3 m/S 676 mmHg 46%
15:00 +22°C° 0 mm 3 m/S 676 mmHg 48%
16:00 +22°C° 0 mm 3 m/S 676 mmHg 50%
17:00 +21°C° 0 mm 3 m/S 675 mmHg 52%
18:00 +19°C° 0 mm 3 m/S 675 mmHg 57%
19:00 +17°C° 0 mm 3 m/S 674 mmHg 62%
20:00 +14°C° 0 mm 3 m/S 674 mmHg 67%
21:00 +14°C° 0 mm 3 m/S 674 mmHg 67%
22:00 +14°C° 0 mm 3 m/S 673 mmHg 68%
23:00 +14°C° 0 mm 3 m/S 673 mmHg 69%

15 Mai, Samstag

Zeit Temperatur Niederschläge Wind Luftdruck Luftfeuchtigkeit
00:00 +13°C° 0 mm 3 m/S 673 mmHg 67%
01:00 +13°C° 0 mm 3 m/S 673 mmHg 65%
02:00 +13°C° 0 mm 3 m/S 673 mmHg 63%
03:00 +13°C° 0 mm 3 m/S 673 mmHg 62%
04:00 +14°C° 0 mm 2 m/S 673 mmHg 62%
05:00 +13°C° 0 mm 2 m/S 673 mmHg 61%
06:00 +15°C° 0 mm 2 m/S 673 mmHg 59%
07:00 +18°C° 0 mm 1 m/S 674 mmHg 58%
08:00 +19°C° 0 mm 1 m/S 675 mmHg 56%
09:00 +20°C° 0 mm 1 m/S 675 mmHg 54%
10:00 +20°C° 0 mm 2 m/S 675 mmHg 53%
11:00 +21°C° 0 mm 2 m/S 675 mmHg 52%
12:00 +23°C° 0 mm 2 m/S 675 mmHg 50%
13:00 +24°C° 0 mm 2 m/S 675 mmHg 48%
14:00 +24°C° 0 mm 2 m/S 675 mmHg 47%
15:00 +24°C° 0 mm 3 m/S 675 mmHg 47%
16:00 +24°C° 0 mm 3 m/S 675 mmHg 48%
17:00 +22°C° 0 mm 3 m/S 675 mmHg 49%
18:00 +20°C° 0 mm 3 m/S 674 mmHg 53%
19:00 +18°C° 0 mm 2 m/S 674 mmHg 57%
20:00 +16°C° 0 mm 2 m/S 674 mmHg 62%
21:00 +16°C° 0 mm 3 m/S 674 mmHg 58%
22:00 +16°C° 0 mm 3 m/S 674 mmHg 55%
23:00 +14°C° 0 mm 3 m/S 674 mmHg 51%
Mehr zeigen

Wir brauchen deine Erlaubnis

Meteoprog und unser Service Anbieter werden persönliche Daten aufbewahren, so wie Cookies, Geräte Bezeichnung oder ähnliche Technologien von deinem Gerät und Prozess, so wie Persönliche Daten Inhalte und Werbungen, genauso wie social Media und den Verkehr zu analysieren.

  • Aufbewahrung und/oder Zugang zu deiner Geräte Informationen.

    Cookies, Geräte Bezeichnung oder andere Informationen, können aufbewahrt oder Zugang zu deinem Gerät erhalten, für den Grund, der oben angegeben wird.

  • Personalisierte Werbung und Inhalte, Messungen, Einblick in das Publikum und Produkt Entwicklung.

    Werbungen und Inhalte können personalisiert werden, basierend auf ein Profil. Mehr Daten können besser personalisierte Werbungen und Inhalte hinzufügen. Werbung und Inhalte können gezeigt und gemessen werden. Einblicke über das Publikum, welche die Werbung gesehen haben und den Inhalt, können abgeleitet werden. So wie Daten können genutzt werden, um es zu verbessern oder die Benutzer Erfahrung zu verbessern das System und die Software.

Wenn du “Ich stimme zu” klickst, erlaubst du uns, die Cookies zu benutzen die Geräte Bezeichnung, den Web oder ähnliche Technologien zu benutzen. Deine Settings, können in deinem Gerät bei deinem Browser geändert werden.

Für den bestimmten Zweck, berechtigten Interessen beruhen darauf, mehr als auf den Inhalt. Du kannst mehr darüber in unseren Privaten und Cookie Politik lesen.